WA2TQI Weather Reports


time (UTC)temp
F
wind
direction
speed
knots
gust
knots
rain 1hr
in
rain 24hr
in
rain mn
in
humidity
%
barometer
mb
20260504175247 72 163 5.2 9.6 0.00 0.00 0.00 41 1013.3
20260504174745 72 182 8.7 8.7 0.00 0.00 0.00 41 1013.1
20260504174243 71 270 2.6 6.1 0.00 0.00 0.00 44 1013.3
20260504173739 71 13 0.0 3.5 0.00 0.00 0.00 44 1013.4
20260504173236 71 197 1.7 5.2 0.00 0.00 0.00 42 1013.6
20260504172733 71 207 5.2 7.0 0.00 0.00 0.00 42 1013.4
20260504172229 70 140 2.6 8.7 0.00 0.00 0.00 43 1013.5
20260504171725 71 20 2.6 3.5 0.00 0.00 0.00 42 1013.7
20260504171223 71 187 3.5 8.7 0.00 0.00 0.00 43 1013.7
20260504170719 71 192 3.5 7.0 0.00 0.00 0.00 44 1013.7
20260504170217 70 225 3.5 6.1 0.00 0.00 0.00 43 1013.8
20260504160135 70 11 0.0 7.0 0.00 0.00 0.00 45 1014.8
20260504151102 68 152 1.7 7.8 0.00 0.00 0.00 49 1015.0
20260504150600 67 175 1.7 2.6 0.00 0.00 0.00 51 1014.8
20260504141026 65 288 1.7 1.7 0.00 0.00 0.00 59 1015.3
20260504140522 65 238 1.7 5.2 0.00 0.00 0.00 61 1015.3
20260504130447 60 229 1.7 5.2 0.00 0.00 0.00 69 1015.9
20260504110334 48 146 0.9 0.9 0.00 0.00 0.00 91 1016.6
20260504100251 46 242 0.0 0.0 0.00 0.00 0.00 90 1016.6
20260504081645 42 82 0.0 0.0 0.00 0.00 0.00 90 1016.4
20260504081141 42 128 0.0 0.0 0.00 0.00 0.00 90 1016.1
20260504080637 41 348 0.0 0.0 0.00 0.00 0.00 93 1016.3
20260504080134 41 314 0.0 0.0 0.00 0.00 0.00 93 1016.4
20260504050450 43 326 0.0 0.0 0.00 0.00 0.00 82 1015.9
20260504045947 44 326 0.0 0.0 0.00 0.00 0.00 80 1015.9
20260504045443 44 326 0.0 0.0 0.00 0.00 0.00 81 1016.0
20260504044939 44 326 0.0 0.0 0.00 0.00 0.00 80 1016.0
20260504044437 44 326 0.0 0.0 0.00 0.00 0.00 78 1015.8
20260504043934 44 326 0.0 0.0 0.00 0.00 0.00 78 1015.8
20260504043431 44 327 0.0 0.0 0.00 0.00 0.00 79 1015.8
20260504042929 44 327 0.0 0.0 0.00 0.00 0.00 77 1015.7
20260504042425 44 327 0.0 0.0 0.00 0.00 0.00 78 1015.9
20260504041921 44 327 0.0 0.0 0.00 0.00 0.00 78 1015.8
20260504041418 44 329 0.0 0.0 0.00 0.00 0.00 77 1015.7
20260504040914 45 329 0.0 0.0 0.00 0.00 0.00 76 1015.7
20260504040412 45 329 0.0 0.0 0.00 0.00 0.00 76 1015.3
20260504035908 46 329 0.0 0.0 0.00 0.00 0.00 75 1015.5
20260504035405 46 329 0.0 0.0 0.00 0.00 0.00 73 1015.5
20260504034901 46 356 0.0 0.0 0.00 0.00 0.00 74 1015.4
20260504034359 46 33 0.0 0.0 0.00 0.00 0.00 74 1015.3
20260504033856 46 35 0.0 0.0 0.00 0.00 0.00 74 1015.4
20260504033354 46 34 0.0 0.0 0.00 0.00 0.00 75 1015.1
20260504032850 46 307 0.0 0.0 0.00 0.00 0.00 73 1015.2
20260504032347 46 308 0.0 0.0 0.00 0.00 0.00 73 1015.2
20260504031844 46 308 0.0 0.0 0.00 0.00 0.00 72 1015.1
20260504031341 46 320 0.0 0.0 0.00 0.00 0.00 72 1015.2
20260504030837 46 321 0.0 0.0 0.00 0.00 0.00 72 1015.2
20260504030335 46 319 0.0 0.0 0.00 0.00 0.00 71 1015.3
20260504025831 46 319 0.0 0.0 0.00 0.00 0.00 70 1015.3
20260504025328 46 331 0.0 0.0 0.00 0.00 0.00 70 1015.3
20260504024825 46 335 0.0 0.0 0.00 0.00 0.00 70 1015.2
20260504024321 46 317 0.0 0.0 0.00 0.00 0.00 71 1015.4
20260504023818 47 315 0.0 0.0 0.00 0.00 0.00 68 1015.2
20260504023315 47 312 0.0 0.0 0.00 0.00 0.00 68 1015.4
20260504022811 47 312 0.0 0.0 0.00 0.00 0.00 68 1015.1
20260504022308 48 305 0.0 0.0 0.00 0.00 0.00 66 1015.2
20260504021804 48 305 0.0 0.0 0.00 0.00 0.00 66 1015.4
20260504021302 48 41 0.0 0.0 0.00 0.00 0.00 68 1015.1
20260504020758 48 58 0.0 0.0 0.00 0.00 0.00 69 1015.2
20260504020255 48 58 0.0 0.0 0.00 0.00 0.00 69 1015.3
20260504015751 48 47 0.0 0.0 0.00 0.00 0.00 68 1015.2
20260504015248 48 46 0.0 0.0 0.00 0.00 0.00 67 1015.2
20260504014743 49 50 0.0 0.0 0.00 0.00 0.00 66 1015.1
20260504014240 49 51 0.0 0.0 0.00 0.00 0.00 64 1015.2
20260504013738 49 51 0.0 0.0 0.00 0.00 0.00 63 1015.2
20260504013235 49 58 0.0 0.0 0.00 0.00 0.00 63 1015.1
20260504012732 50 81 0.0 0.0 0.00 0.00 0.00 64 1015.0
20260504012230 50 81 0.0 0.0 0.00 0.00 0.00 63 1014.7
20260504011726 51 81 0.0 0.0 0.00 0.00 0.00 60 1014.9
20260504011223 51 81 0.0 0.0 0.00 0.00 0.00 59 1014.7
20260504010719 52 80 0.0 0.0 0.00 0.00 0.00 60 1014.7
20260504010215 52 80 0.0 0.0 0.00 0.00 0.00 58 1014.7
20260504005711 52 79 0.0 0.0 0.00 0.00 0.00 57 1014.6
20260504005209 53 121 0.0 0.0 0.00 0.00 0.00 57 1014.6
20260504004707 53 116 0.0 0.0 0.00 0.00 0.00 55 1014.4
20260504004203 54 148 0.0 0.0 0.00 0.00 0.00 54 1014.2
20260504003700 54 189 0.0 0.0 0.00 0.00 0.00 52 1014.3
20260504003157 54 345 0.0 0.0 0.00 0.00 0.00 51 1014.3
20260504002653 54 29 0.0 0.0 0.00 0.00 0.00 51 1014.2
20260504002151 55 305 0.0 0.0 0.00 0.00 0.00 50 1014.1
20260504001649 55 280 0.0 1.7 0.00 0.00 0.00 51 1014.0
20260504001144 56 319 0.0 0.9 0.00 0.00 0.00 50 1014.0
20260504000642 56 109 0.0 0.0 0.00 0.00 0.00 48 1014.0
20260504000139 56 36 0.0 1.7 0.00 0.00 0.00 46 1013.9
20260503235637 57 326 0.0 0.0 0.00 0.00 0.00 46 1014.0
20260503235133 57 8 0.0 0.9 0.00 0.00 0.00 46 1013.9
20260503234632 58 281 0.0 1.7 0.00 0.00 0.00 44 1013.9
20260503234129 58 302 0.9 1.7 0.00 0.00 0.00 45 1013.8
20260503233626 58 280 0.0 0.9 0.00 0.00 0.00 44 1013.8
20260503233122 58 226 0.0 0.9 0.00 0.00 0.00 44 1013.8
20260503232619 58 137 0.0 2.6 0.00 0.00 0.00 43 1013.5
20260503232116 58 308 0.9 1.7 0.00 0.00 0.00 44 1013.8
20260503231614 59 308 1.7 3.5 0.00 0.00 0.00 43 1013.6
20260503231110 59 323 0.9 2.6 0.00 0.00 0.00 43 1013.5
20260503230608 59 21 1.7 1.7 0.00 0.00 0.00 43 1013.5
20260503230104 59 304 1.7 3.5 0.00 0.00 0.00 43 1013.4
20260503225601 59 248 1.7 2.6 0.00 0.00 0.00 42 1013.3
20260503225056 59 149 2.6 3.5 0.00 0.00 0.00 44 1013.4
20260503224554 59 100 1.7 3.5 0.00 0.00 0.00 42 1013.5
20260503224052 59 68 2.6 3.5 0.00 0.00 0.00 42 1013.4
20260503223550 59 328 0.9 2.6 0.00 0.00 0.00 42 1013.6
20260503223045 59 347 1.7 2.6 0.00 0.00 0.00 41 1013.4
20260503222543 60 277 2.6 3.5 0.00 0.00 0.00 40 1013.5
20260503222041 60 291 0.9 3.5 0.00 0.00 0.00 42 1013.5
20260503221539 60 297 0.9 1.7 0.00 0.00 0.00 42 1013.4
20260503221036 60 324 3.5 6.1 0.00 0.00 0.00 40 1013.4
20260503220532 60 0 1.7 3.5 0.00 0.00 0.00 41 1013.3
20260503220029 60 255 0.0 1.7 0.00 0.00 0.00 42 1013.3
20260503215526 60 311 0.0 1.7 0.00 0.00 0.00 42 1013.5
20260503215023 60 337 1.7 6.1 0.00 0.00 0.00 41 1013.5
20260503214522 60 331 0.9 1.7 0.00 0.00 0.00 42 1013.4
20260503214018 60 340 1.7 2.6 0.00 0.00 0.00 41 1013.4
20260503213517 60 324 1.7 6.1 0.00 0.00 0.00 41 1013.2
20260503213013 60 325 0.9 3.5 0.00 0.00 0.00 42 1013.5
20260503212510 60 285 1.7 2.6 0.00 0.00 0.00 41 1013.5
20260503212008 60 304 1.7 3.5 0.00 0.00 0.00 42 1013.3
20260503211504 60 142 2.6 3.5 0.00 0.00 0.00 43 1013.5
20260503211000 60 306 0.9 2.6 0.00 0.00 0.00 42 1013.4
20260503210457 60 335 1.7 3.5 0.00 0.00 0.00 42 1013.3
20260503205951 60 347 3.5 5.2 0.00 0.00 0.00 42 1013.6
20260503205449 60 9 1.7 5.2 0.00 0.00 0.00 43 1013.3
20260503204944 60 298 3.5 7.8 0.00 0.00 0.00 41 1013.5
20260503204442 59 294 1.7 9.6 0.00 0.00 0.00 41 1013.2
20260503203939 60 182 2.6 5.2 0.00 0.00 0.00 41 1013.5
20260503203437 59 69 1.7 6.1 0.00 0.00 0.00 41 1013.7
20260503202933 59 297 3.5 7.8 0.00 0.00 0.00 42 1013.4
20260503202431 60 275 2.6 6.1 0.00 0.00 0.00 41 1013.7
20260503201930 60 22 0.0 3.5 0.00 0.00 0.00 41 1013.5
20260503201426 61 331 2.6 3.5 0.00 0.00 0.00 41 1013.8
20260503200924 61 278 4.3 6.1 0.00 0.00 0.00 41 1013.9
20260503200420 60 294 0.9 7.0 0.00 0.00 0.00 41 1013.7
20260503195917 60 280 1.7 7.0 0.00 0.00 0.00 41 1013.7
20260503195414 60 329 0.9 7.0 0.00 0.00 0.00 42 1013.7
20260503194911 60 8 1.7 7.0 0.00 0.00 0.00 41 1013.7
20260503194407 60 357 3.5 5.2 0.00 0.00 0.00 40 1013.9
20260503193903 60 246 3.5 6.1 0.00 0.00 0.00 40 1013.7
20260503193359 60 42 2.6 3.5 0.00 0.00 0.00 40 1013.5
20260503192854 60 314 1.7 5.2 0.00 0.00 0.00 41 1013.9
20260503192350 60 297 0.9 2.6 0.00 0.00 0.00 41 1014.0
20260503191847 60 294 2.6 5.2 0.00 0.00 0.00 42 1014.1
20260503191344 59 229 1.7 2.6 0.00 0.00 0.00 42 1014.1
20260503190841 58 265 5.2 9.6 0.00 0.00 0.00 43 1014.1
20260503190338 59 324 1.7 6.1 0.00 0.00 0.00 41 1014.2
20260503185835 60 346 1.7 5.2 0.00 0.00 0.00 41 1014.3
20260503185332 59 340 0.9 6.1 0.00 0.00 0.00 41 1014.2
20260503184831 59 314 3.5 7.8 0.00 0.00 0.00 42 1014.3
20260503184327 58 313 4.3 6.1 0.00 0.00 0.00 42 1014.2
20260503183823 58 54 3.5 6.1 0.00 0.00 0.00 42 1014.4
20260503183321 58 284 2.6 7.0 0.00 0.00 0.00 41 1014.7
20260503182818 57 338 1.7 6.1 0.00 0.00 0.00 42 1014.4
20260503182317 58 305 3.5 8.7 0.00 0.00 0.00 42 1014.6
20260503181814 58 331 0.9 3.5 0.00 0.00 0.00 43 1014.5
20260503181311 58 298 4.3 6.1 0.00 0.00 0.00 42 1014.6
20260503180807 58 325 1.7 6.1 0.00 0.00 0.00 44 1014.6
20260503180306 58 253 1.7 7.8 0.00 0.00 0.00 44 1014.7
20260503175801 58 327 3.5 6.1 0.00 0.00 0.00 44 1014.5